sat.trackr.live / text

‹ back to catalog

STARLINK-36136

NORAD 66967 · 2025-288J

PAYLOAD ACTIVE UNKNOWN

§ Identity

Operator
Country
US
Launch date
2025-12-08
Launch site
AFETR
Launch vehicle
Mass (kg)
RCS (m²)

Purposes: comms

External: N2YO · Heavens-Above · Gunter

§ Orbital elements

Epoch: 2026-09-20T07:33:06.305184Z

Period
94.27 min
Inclination
43.0029°
Eccentricity
0.0002089
Mean motion
15.27591830 rev/d
Perigee alt
481.6 km
Apogee alt
484.4 km
Semi-major
6,861.2 km
B*
4.6845e-4
RAAN
4.2371°
Arg perigee
267.6059°
Mean anomaly
92.4553°
Rev number
4,505

§ Raw data

STARLINK-361361 66967U 25288J   26263.31465631  .00012655  00000+0  46845-3 0  99952 66967  43.0029   4.2371 0002089 267.6059  92.4553 15.27591830 45058

JSON: /api/v1/satellites/66967 · /tle

For live sub-satellite position, see the globe view (requires WebGL).

§ Visibility from observer

Set your observer location to see the next 7 days of passes ≥ 10°. The values pass through the URL so the page stays shareable.

No JS? Fill the form by hand. The geolocation button needs JavaScript.